Regional Weather Roundup
Issued by NWS

Home | Current Version | Previous Version | Text Only | Print | Product List | Glossary On
Versions: 1 2 3 4 5 6 7 8 9 10 11 12 13 14 15 16 17 18 19 20 21 22 23 24 25 26 27 28 29 30 31 32 33 34 35 36 37 38 39 40 41 42 43 44 45 46 47 48 49 50
000
ASHW40 PHFO 021510
RWRHI

WEATHER ROUNDUP FOR HAWAII
NATIONAL WEATHER SERVICE HONOLULU HI
500 AM HST WED SEP 02 2015

THIS IS AN AUTOMATED REPORT THAT HAS NOT BEEN QUALITY CONTROLLED.

NOTE..."FAIR" INDICATES FEW OR NO CLOUDS BELOW 12,000 FEET WITH NO
SIGNIFICANT WEATHER AND/OR OBSTRUCTIONS TO VISIBILITY.

* - THESE SITES REPORT LIMITED FIELDS

HIZ001>004-021600-
KAUAI-NIIHAU-

CITY           SKY/WX    TMP DP  RH WIND       PRES   REMARKS
LIHUE APT      CLEAR     75  71  88 SW3       29.81F
PORT ALLEN*    NOT AVBL
POIPU*           N/A     73 N/A N/A N2          N/A
PRINCEVILLE*     N/A     75 N/A N/A MISG        N/A
KOKOLE POINT*  NOT AVBL
MOLOAA DAIRY*    N/A     77  75  94 W7          N/A
WAIMEA HTS*    NOT AVBL
PUU OPAE*      NOT AVBL
PUU LUA*       NOT AVBL
MAKAHA RIDGE*  NOT AVBL
$$

HIZ005>011-021600-
OAHU-

CITY           SKY/WX    TMP DP  RH WIND       PRES   REMARKS
HONOLULU       PTCLDY    76  73  91 E5        29.81S
KALAELOA       CLEAR     75  71  87 E3        29.83S
KANEOHE MCB    PTCLDY    77  72  84 CALM      29.79R
WHEELER FIELD  FAIR      73  70  90 CALM      29.82S
BELLOWS*       NOT AVBL
KAHUKU*        NOT AVBL
WHEELER*       NOT AVBL
WAIANAE HARBOR NOT AVBL
DILLINGHAM*      N/A     77  72  83 MISG        N/A
KAHUKU TRN*      N/A     90  86  89 W6G12       N/A  HX 119
KAWAILOA*        N/A     73  72  94 SW3         N/A
KII*             N/A     81  75  83 SW6G13      N/A
MAKUA RANGE*     N/A     79  73  83 SE3         N/A
OAHU FOREST NW NOT AVBL
SCHOFIELD BRK*   N/A     70  68  94 MISG        N/A
SCHOFIELD S*   NOT AVBL
WAIANAE VLY*   NOT AVBL
KUAOKALA*      NOT AVBL
HONOULIUULI*   NOT AVBL
MOKUOLOE IS*   NOT AVBL
PALEHUA*       NOT AVBL
WAIAWA PHB*    NOT AVBL
$$

HIZ012>013-021600-
MOLOKAI-

CITY           SKY/WX    TMP DP  RH WIND       PRES   REMARKS
MOLOKAI AIRPT  PTCLDY    78  74  87 S5        29.85R
KALAUPAPA      NOT AVBL
MAKAPULAPAI*   NOT AVBL
MOLOKAI 1*     NOT AVBL
PUU ALII*      NOT AVBL
$$

HIZ016-021600-
KAHOOLAWE-

CITY           SKY/WX    TMP DP  RH WIND       PRES   REMARKS
KAHOOLAWE*     NOT AVBL
HAKIOAWA*      NOT AVBL
HONOKANAIA*      N/A     83  76  79 SE7       29.78S HX  91
KANELOA*         N/A     79  75  89 S6G13     29.91S
KEALIALALO*    NOT AVBL
LUA MAKIKA*    NOT AVBL
$$

HIZ014>015-021600-
LANAI-

CITY           SKY/WX    TMP DP  RH WIND       PRES   REMARKS
LANAI CITY     CLOUDY    75  74  96 SW5       29.92R
LANAI 1*       NOT AVBL
$$

HIZ017>028-021600-
MAUI-

CITY           SKY/WX    TMP DP  RH WIND       PRES   REMARKS
KAHULUI        LGT RAIN  81  75  83 S12       29.84R
KAPALUA-W MAUI NOT AVBL
HANA AIRPORT   CLOUDY    73  73 100 S2        29.86S
HANA*          NOT AVBL
HALEAKALA SUMM   N/A     46  45  93 S6G22       N/A
MAALAEA BAY*   NOT AVBL
HALEAKALA*     NOT AVBL
KAUPO GAP*     NOT AVBL
KULA 1*          N/A     56  50  81 SE14G26     N/A
$$

HIZ023>026-021600-
BIG ISLAND OF HAWAII COAST AND LOWER SLOPES-

CITY           SKY/WX    TMP DP  RH WIND       PRES   REMARKS
KAILUA KONA    LGT RAIN  79  72  79 SE14      29.85S
HILO           CLEAR     74  69  85 SW6       29.85R
HONOKAA*       NOT AVBL
KAWAIHAE MWT*  NOT AVBL
KAWAIHAE*        N/A     81 N/A N/A VRB3G9      N/A
SOUTH POINT*   NOT AVBL
UPOLU AIRPORT* NOT AVBL
KAMUELA*       NOT AVBL
HAKALAU*         N/A     53  50  90 W5          N/A
KALOKO-HONOKO* NOT AVBL
PALI 2*          N/A     66  64  94 NW5         N/A
KEALAKOMO*     NOT AVBL
KAUPULEHU*     NOT AVBL
KAPAPALA*        N/A     66  65  98 NW6         N/A
LOWER KAHUKU*  NOT AVBL
PUHE CS*       NOT AVBL
PUHO CS*       NOT AVBL
PTA KEAMUKU*     N/A     66  61  82 CALM        N/A
WAIKOLOA*      NOT AVBL
$$

HIZ027>028-021600-
BIG ISLAND OF HAWAII INTERIOR AND SUMMMITS-

CITY           SKY/WX    TMP DP  RH WIND       PRES   REMARKS
BRADSHAW FIELD CLOUDY    60  52  77 W3        30.25R
MK VISITOR CEN   N/A     52  41  66 N10         N/A
MAUNA KEA*       N/A     36  30  80 W10         N/A  WCI  28
MAUNA LOA*     NOT AVBL
MAUNA LOA 1*   NOT AVBL
PTA KIPUKA*      N/A     61  59  94 S2G12       N/A
PTA RANGE 17*    N/A     59  57  94 NE3         N/A
PTA WEST*        N/A     73  70  88 SE10G17     N/A
NENE CABIN*    NOT AVBL
AHUMOA*        NOT AVBL
PTA PORTABLE*  NOT AVBL
PUU MALI*        N/A     57  52  82 S3          N/A
$$

HIC003-021600-
NORTHWEST ISLANDS-

CITY           SKY/WX    TMP DP  RH WIND       PRES   REMARKS
MIDWAY ISLAND  CLEAR     82  79  89 E12       29.92F FOG     HX  93
MIDWAY NOS*    NOT AVBL
FRENCH FRIGATE NOT AVBL
$$

PHZ110>124-180-021600-
BUOY REPORTS

STATION/POSITION TIME  TEMP    WIND        PRES    WAVE   SWELL
                       AIR SEA DIR/SP/G            HT/PER HT/DIR
                 (UTC) (F)     (DEG/KT/KT) (MB)    (FT/S) (FT/D)
BUOY 51001       1448   81 83   10/ 14/ 17 1011.0   10/11  10/100
BUOY 51101       1500   81 82   10/ 14/ 17 1010.4F   9/14   7/ 90
BUOY 51100       NOT AVBL
BUOY 51002       1500   81 84  200/  6/ 10 1010.4F   6/11   7/ 70
BUOY 51003       1500   82 85   40/  4/  6 1009.9F   6/10   5/ 60
BUOY 51004       1421   82 84  120/  4/  6 1011.2R   8/12   8/100
BARBERS PT BUOY  NOT AVBL
WAIMEA BAY BUOY  1500      83                N/A     9/11   7/ 20
KAILUA BAY BUOY  1500      83                N/A    11/11   8/ 30
LANAI BUOY       NOT AVBL
BARBERS PT 2     1500      82                N/A     3/12   2/200
PAUWELA MAUI     1500      82                N/A    11/17   8/ 90
HILO             NOT AVBL
KANEOHE BAY BUOY 1500      83                N/A     9/11   7/ 20
HANALEI KAUAI    1500      83                N/A    11/12   8/ 50
KAHULUI HARBOR   1500   80 83  170/ 12/ 18 1010.0R
HONOLULU HARBOR  1500   79 83   CALM  /  1 1009.9R
KILO NALU        NOT AVBL
HILO HARBOR      1500   76 81  200/  6/  7 1010.3R
MOKUOLOE         1500   79 86  190/  4/  5 1009.5S
NAWILIWILI       1500   74 84  250/  5/  6 1009.3S
WHOTS BUOY       NOT AVBL
BUOY 51028       NOT AVBL
$$

......................KEY........................................
  SKY/WX - SKY CONDITIONS/PRESENT WEATHER
  TMP    - TEMPERATURE IN FAHRENHEIT
  DWPT   - DEWPOINT IN FAHRENHEIT
  RH     - RELATIVE HUMIDITY IN PERCENT
  WIND   - DIRECTION AND SPEED /MPH FOR ISLANDS...KTS FOR BUOYS/
  PRES   - MEAN SEA LEVEL PRESSURE IN INCHES OF HG
  VSB    - VISIBILITY IN MILES
  HX     - HEAT INDEX
  WCI    - WIND CHILL INDEX
  VRB    - VARIABLE WIND DIRECTION
  N/A    - NOT AVAILABLE



USA.gov is the U.S. government's official web portal to all federal, state and local government web resources and services.